• Join FlightAware (Why Join?)
  • Login
  • US Flag 
11:31AM EDT


 

Airport Tracker/Info


-or-


 

Live Flight TrackerFlight Track Log ✈ AJI501 ✈ 19-Apr-2013 ✈ KLIT - KMFE

Flight Track Log - Related Links

Times and Time Zones

All times are in EDT time to prevent confusion due to time zone crossing. See the AJI501 flight status page for this flight to view local times or setup timezone preferences in your user account.

Time Position Orientation Groundspeed Altitude Reporting Facility
EDT Latitude Longitude Course Direction KTS MPH feet Rate Location/Type
05:40PM 34.7494 -92.2097 31° Northeast 178 205 1,500  Level Memphis Center
05:41PM 34.7675 -92.2583 294° West 189 217 4,300 2,640 Climbing Memphis Center
05:42PM 34.7644 -92.3214 267° West 199 229 6,600 2,160 Climbing Memphis Center
05:43PM 34.7594 -92.3744 263° West 224 258 7,900 1,920 Climbing Memphis Center
05:44PM 34.7311 -92.4544 247° West 242 278 10,000 2,100 Climbing Memphis Center
05:45PM 34.6942 -92.5344 241° Southwest 256 295 12,200 2,160 Climbing Memphis Center
05:46PM 34.6514 -92.6042 233° Southwest 261 300 14,400 1,800 Climbing Memphis Center
05:47PM 34.6000 -92.6758 229° Southwest 273 314 15,800 1,320 Climbing Memphis Center
05:48PM 34.5442 -92.7550 229° Southwest 293 337 17,100 1,500 Climbing Memphis Center
05:49PM 34.4883 -92.8367 230° Southwest 307 353 18,900 1,800 Climbing Memphis Center
05:50PM 34.4347 -92.9131 230° Southwest 307 353 20,700 1,440 Climbing Memphis Center
05:51PM 34.3808 -92.9919 230° Southwest 307 353 21,800 1,140 Climbing Memphis Center
05:52PM 34.3228 -93.0683 227° Southwest 325 374 23,000 1,560 Climbing Memphis Center
05:54PM 34.2217 -93.2039 228° Southwest 313 360 26,200 1,620 Climbing Fort Worth Center
05:55PM 34.1700 -93.2819 231° Southwest 308 354 27,500 900 Climbing Fort Worth Center
05:56PM 34.1122 -93.3597 228° Southwest 308 354 28,000 240 Climbing Fort Worth Center
05:57PM 34.0500 -93.4406 227° Southwest 319 367 28,000  Level Fort Worth Center
05:58PM 33.9817 -93.5236 225° Southwest 337 388 28,000  Level Fort Worth Center
05:59PM 33.9069 -93.6072 223° Southwest 350 403 28,000  Level Fort Worth Center
06:00PM 33.8258 -93.6831 218° Southwest 368 423 28,000  Level Fort Worth Center
06:01PM 33.7250 -93.7350 203° Southwest 375 432 28,000  Level Fort Worth Center
06:02PM 33.6289 -93.7964 208° Southwest 386 444 28,000  Level Fort Worth Center
06:03PM 33.5367 -93.8625 211° Southwest 386 444 28,000  Level Fort Worth Center
06:04PM 33.4428 -93.9308 211° Southwest 391 450 28,000  Level Fort Worth Center
06:05PM 33.3486 -94.0017 212° Southwest 398 458 28,000  Level Fort Worth Center
06:06PM 33.2544 -94.0650 209° Southwest 403 464 28,000  Level Fort Worth Center
06:07PM 33.1619 -94.1256 209° Southwest 392 451 28,000  Level Fort Worth Center
06:08PM 33.0656 -94.1886 209° Southwest 392 451 28,000  Level Fort Worth Center
06:09PM 32.9731 -94.2489 209° Southwest 386 444 28,000  Level Fort Worth Center
06:10PM 32.8808 -94.3089 209° Southwest 386 444 28,000  Level Fort Worth Center
06:11PM 32.7883 -94.3714 210° Southwest 386 444 28,000  Level Fort Worth Center
06:12PM 32.6978 -94.4314 209° Southwest 386 444 28,000  Level Fort Worth Center
06:13PM 32.6075 -94.4936 210° Southwest 386 444 28,000  Level Fort Worth Center
06:14PM 32.5150 -94.5531 208° Southwest 386 444 28,000  Level Fort Worth Center
06:15PM 32.4242 -94.6078 207° Southwest 386 444 28,000  Level Fort Worth Center
06:16PM 32.3358 -94.6644 208° Southwest 380 437 28,000  Level Fort Worth Center
06:17PM 32.2472 -94.7261 210° Southwest 375 432 28,000  Level Fort Worth Center
06:18PM 32.1631 -94.7900 213° Southwest 370 426 28,000  Level Fort Worth Center
06:19PM 32.0767 -94.8464 209° Southwest 364 419 28,000  Level Fort Worth Center
06:20PM 31.9881 -94.9053 209° Southwest 364 419 28,000  Level Fort Worth Center
06:21PM 31.9014 -94.9614 209° Southwest 364 419 28,000  Level Fort Worth Center
06:23PM 31.7094 -95.0833 208° Southwest 355 409 28,000  Level Houston Center
06:24PM 31.6231 -95.1386 209° Southwest 354 407 28,000  Level Houston Center
06:25PM 31.5211 -95.2044 209° Southwest 350 403 28,000  Level Houston Center
06:26PM 31.4378 -95.2611 210° Southwest 348 400 28,000  Level Houston Center
06:27PM 31.3539 -95.3153 209° Southwest 346 398 28,000  Level Houston Center
06:28PM 31.2711 -95.3683 209° Southwest 344 396 28,000  Level Houston Center
06:29PM 31.1869 -95.4206 208° Southwest 343 395 28,000  Level Houston Center
06:30PM 31.0875 -95.4850 209° Southwest 341 392 28,000  Level Houston Center
06:31PM 31.0031 -95.5372 208° Southwest 342 394 28,000  Level Houston Center
06:32PM 30.9208 -95.5897 209° Southwest 340 391 28,000  Level Houston Center
06:33PM 30.8386 -95.6422 209° Southwest 339 390 28,000  Level Houston Center
06:34PM 30.7564 -95.6961 209° Southwest 339 390 28,000  Level Houston Center
06:35PM 30.6747 -95.7475 208° Southwest 341 392 28,000  Level Houston Center
06:36PM 30.5725 -95.8108 208° Southwest 345 397 28,000  Level Houston Center
06:37PM 30.4889 -95.8631 208° Southwest 344 396 28,000  Level Houston Center
06:38PM 30.4056 -95.9153 208° Southwest 342 394 28,000  Level Houston Center
06:39PM 30.3222 -95.9675 208° Southwest 342 394 28,000  Level Houston Center
06:40PM 30.2383 -96.0200 208° Southwest 344 396 28,000  Level Houston Center
06:41PM 30.1417 -96.0808 209° Southwest 346 398 28,000  Level Houston Center
06:42PM 30.0639 -96.1294 208° Southwest 345 397 28,000  Level Houston Center
06:44PM 29.9631 -96.1922 208° Southwest 343 395 28,000  Level Houston Center
06:45PM 29.8789 -96.2453 209° Southwest 344 396 28,000  Level Houston Center
06:46PM 29.7958 -96.2986 209° Southwest 342 394 28,000  Level Houston Center
06:47PM 29.7117 -96.3500 208° Southwest 343 395 28,000  Level Houston Center
06:49PM 29.5408 -96.4483 207° Southwest 342 394 28,000  Level Houston Center
06:50PM 29.4350 -96.5028 204° Southwest 345 397 28,000  Level Houston Center
06:51PM 29.3492 -96.5506 206° Southwest 341 392 28,000  Level Houston Center
06:52PM 29.2636 -96.5981 206° Southwest 339 390 28,000  Level Houston Center
06:53PM 29.1786 -96.6467 207° Southwest 337 388 28,000  Level Houston Center
06:54PM 29.0928 -96.6944 206° Southwest 338 389 28,000  Level Houston Center
06:55PM 29.0075 -96.7408 205° Southwest 338 389 28,000  Level Houston Center
06:56PM 28.9214 -96.7872 205° Southwest 338 389 28,000  Level Houston Center
06:57PM 28.8194 -96.8431 206° Southwest 338 389 28,000  Level Houston Center
06:58PM 28.7369 -96.8894 206° Southwest 334 384 28,000  Level Houston Center
06:59PM 28.6525 -96.9336 205° Southwest 333 383 28,000  Level Houston Center
07:00PM 28.5686 -96.9794 206° Southwest 333 383 28,000  Level Houston Center
07:01PM 28.4842 -97.0239 205° Southwest 334 384 28,000  Level Houston Center
07:02PM 28.4003 -97.0692 205° Southwest 333 383 28,000  Level Houston Center
07:03PM 28.3000 -97.1239 206° Southwest 333 383 28,000  Level Houston Center
07:04PM 28.2158 -97.1686 205° Southwest 333 383 28,000  Level Houston Center
07:05PM 28.1325 -97.2142 206° Southwest 333 383 28,000  Level Houston Center
07:06PM 28.0481 -97.2594 205° Southwest 334 384 28,000  Level Houston Center
07:07PM 27.9633 -97.3039 205° Southwest 334 384 28,000  Level Houston Center
07:08PM 27.8761 -97.3497 205° Southwest 335 386 28,000  Level Houston Center
07:09PM 27.7914 -97.3950 205° Southwest 335 386 28,000  Level Houston Center
07:10PM 27.6886 -97.4492 205° Southwest 338 389 28,000  Level Houston Center
07:11PM 27.6019 -97.4953 205° Southwest 341 392 28,000 -180 Level Houston Center
07:12PM 27.5158 -97.5408 205° Southwest 341 392 27,700 -1,140 Descending Houston Center
07:14PM 27.4228 -97.5906 205° Southwest 359 413 25,700 -1,800 Descending Houston Center
07:15PM 27.3208 -97.6408 204° Southwest 389 448 24,100 -1,320 Descending Houston Center
07:16PM 27.2236 -97.6978 208° Southwest 394 453 23,000 -1,500 Descending Houston Center
07:17PM 27.1408 -97.8000 228° Southwest 370 426 21,000 -1,920 Descending Houston Center
07:18PM 27.0678 -97.8956 229° Southwest 370 426 19,100 -1,680 Descending Houston Center
07:19PM 26.9772 -98.0031 227° Southwest 382 440 17,100 -1,500 Descending Houston Center
07:20PM 26.9156 -98.0386 207° Southwest 388 447 16,100 -1,620 Descending Houston Center
07:20PM 26.8347 -98.0686 198° South 373 429 14,700 -2,040 Descending Houston Center
07:21PM 26.8056 -98.0803 200° South 366 421 14,000 -1,920 Descending Houston Center
07:22PM 26.7456 -98.1014 197° South 342 394 12,800 -1,860 Descending Houston Center
07:22PM 26.7200 -98.1117 200° South 331 381 12,100 -1,980 Descending Houston Center
07:23PM 26.6567 -98.1342 198° South 318 366 10,800 -1,860 Descending Houston Center
07:23PM 26.6317 -98.1444 200° South 316 364 10,200 -1,200 Descending Houston Center
07:23PM 26.5839 -98.1622 198° South 306 352 9,700 -1,020 Descending Houston Center
07:24PM 26.5575 -98.1761 205° Southwest 293 337 9,200 -1,260 Descending Houston Center
07:25PM 26.5058 -98.2006 203° Southwest 273 314 8,200 -1,560 Descending Houston Center
07:25PM 26.4864 -98.2108 205° Southwest 265 305 7,600 -1,620 Descending Houston Center
07:26PM 26.4192 -98.2436 204° Southwest 264 304 6,100 -1,440 Descending Houston Center
07:27PM 26.3758 -98.2664 205° Southwest 266 306 5,200 -1,560 Descending Houston Center
07:27PM 26.3458 -98.2853 209° Southwest 272 313 4,500 -1,440 Descending Houston Center
07:27PM 26.3122 -98.3000 201° Southwest 273 314 3,900 -960 Descending Houston Center
07:28PM 26.2764 -98.3117 196° South 267 307 3,500 -720 Descending Houston Center
07:29PM 26.2433 -98.3042 168° South 190 219 3,000 -1,080 Descending Houston Center
07:29PM 26.2322 -98.2953 144° Southeast 175 201 2,400 -1,740 Descending Houston Center
07:30PM 26.2175 -98.2797 137° Southeast 142 163 1,600 -1,560 Descending Houston Center
07:30PM 26.2053 -98.2678 139° Southeast 137 158 800 -600 Descending Houston Center
07:31PM 26.1792 -98.2433 140° Southeast 136 157 700 -120 Descending Houston Center